Wind_Speed
30 31 32 33 34 35 37 37 38 38 39 41 41 42 43 44 44 43 44 44 44 44 44 44 44 44 44 43 43 44 44 43 43 44 44 45 45 45 45 45 45 45 45 45
30 30 31 33 34 35 35 36 37 38 39 40 40 41 42 43 43 42 43 43 43 44 45 44 44 44 44 45 45 45 45 45 45 44 45 44 45 45 46 46 46 46 46 46
30 30 30 31 32 33 34 35 36 37 38 39 39 40 40 41 41 40 41 42 43 43 44 45 45 44 44 45 46 46 47 46 46 46 46 46 46 47 47 47 47 47 47 47
30 30 30 30 31 32 33 34 35 36 37 37 37 38 38 38 39 39 39 40 42 43 43 44 45 45 45 45 45 46 46 47 47 47 48 47 47 48 48 48 48 48 48 49
29 30 30 30 31 31 32 33 33 34 35 36 36 38 38 37 37 37 38 39 41 42 43 43 44 45 45 45 46 46 47 47 48 48 49 49 49 49 49 49 49 49 49 50
28 28 29 30 30 31 32 32 32 33 33 35 34 36 37 36 36 36 35 36 38 39 40 41 43 44 45 45 46 46 47 48 48 49 49 49 49 49 49 50 50 49 49 49
26 26 27 28 29 30 31 30 30 31 33 34 33 34 36 34 34 35 35 35 36 37 38 40 41 43 44 45 45 45 46 47 47 47 48 48 49 48 49 49 50 49 48 48
26 27 26 27 28 29 29 29 29 31 32 33 33 34 35 33 32 33 34 34 35 35 36 38 40 42 43 44 44 44 45 46 46 46 47 48 49 49 49 49 49 50 50 49
26 27 27 27 27 28 28 28 29 30 31 32 32 33 33 32 32 32 33 33 34 33 34 36 37 39 41 42 44 44 45 45 46 46 47 48 49 50 50 50 50 50 51 51
27 28 28 28 27 27 27 27 27 28 29 30 30 31 31 31 31 30 31 32 33 33 34 34 36 37 38 40 42 43 43 44 45 46 47 47 49 50 51 51 50 51 51 51
29 29 29 28 28 27 27 27 27 28 29 30 31 30 29 30 30 30 30 31 31 32 33 34 35 36 37 38 40 42 43 43 44 45 46 46 47 49 50 51 51 50 50 50
28 28 28 28 27 27 27 26 26 27 28 29 30 29 27 29 30 30 31 31 31 31 33 34 34 35 36 37 38 40 42 43 44 45 45 46 47 48 49 50 51 50 50 50
28 28 28 27 27 27 26 25 25 27 28 29 30 30 27 27 28 30 31 31 32 33 33 33 34 35 35 35 36 38 40 41 42 44 45 45 46 47 48 49 50 50 50 50
28 28 27 28 28 27 27 26 26 27 28 29 29 28 27 28 27 28 29 30 31 32 32 33 33 34 34 35 36 37 39 41 41 42 44 45 46 47 48 48 50 51 51 51
29 28 28 28 28 27 27 26 26 27 28 29 28 28 27 27 28 27 28 29 30 30 31 32 32 33 34 35 36 37 38 39 40 42 43 44 45 46 47 48 49 50 51 51
29 29 28 28 27 27 27 26 26 27 27 28 29 29 28 28 28 29 28 28 29 29 30 31 32 33 34 35 36 37 38 40 41 42 42 42 43 44 45 46 47 49 49 50
29 30 29 28 27 28 27 27 27 27 27 27 28 28 29 29 28 29 29 29 29 29 30 31 32 33 34 35 37 38 39 40 41 41 42 43 44 45 45 45 46 47 48 49
29 29 29 29 28 28 28 28 28 28 28 28 28 28 29 30 30 30 31 30 30 30 30 31 32 34 34 35 36 37 38 39 39 41 42 43 43 44 46 46 47 48 49 49
28 28 29 29 30 31 30 29 29 29 29 29 29 29 30 30 30 30 31 32 32 33 33 33 33 33 34 35 36 37 38 39 39 40 41 42 43 43 44 45 47 47 48 48
28 28 28 29 31 32 31 31 31 31 30 30 29 29 30 30 30 30 31 33 34 34 35 35 35 35 35 36 36 37 38 38 39 39 39 40 42 42 43 44 45 46 46 46
29 29 30 30 31 32 32 31 31 31 31 31 30 30 30 31 31 32 32 33 34 34 35 36 36 36 36 37 37 37 38 38 38 38 39 39 40 41 42 43 43 44 44 45
29 30 30 31 32 32 32 31 31 32 32 32 32 32 31 31 32 32 33 33 34 34 35 35 36 36 36 36 36 37 37 38 38 38 38 39 39 40 40 41 42 43 43 44
30 30 31 31 31 32 32 32 32 32 32 32 32 32 33 33 33 33 33 34 35 35 35 35 36 35 35 35 36 36 36 37 37 37 37 38 38 39 39 40 41 42 42 43
31 31 32 32 32 32 32 33 33 32 33 33 33 33 33 34 34 34 35 35 36 36 36 36 35 35 35 35 35 35 35 35 35 36 37 37 38 38 39 39 40 41 41 41
31 33 33 32 32 32 32 32 32 32 32 33 33 34 34 34 35 35 36 36 36 36 36 36 36 35 35 34 33 33 34 34 35 35 36 37 38 37 38 38 38 39 39 40
31 32 32 32 32 32 31 31 31 31 31 32 33 33 34 35 35 36 36 36 36 36 35 35 34 34 33 33 33 33 34 35 35 35 35 36 36 36 37 37 37 37 38 39
Wind_Direction
283 279 278 277 276 275 276 276 275 273 272 270 268 267 266 265 264 261 259 257 256 254 253 253 253 252 251 251 251 251 251 252 252 251 251 250 250 250 250 251 251 252 252 252
282 279 279 279 278 278 278 277 276 275 274 273 271 269 266 265 264 261 260 258 256 254 254 253 252 251 252 252 251 251 252 252 253 252 252 250 250 250 250 252 252 253 253 254
281 281 280 280 280 280 279 278 278 278 277 275 272 269 267 266 264 262 261 259 257 256 255 254 253 253 253 252 252 252 252 253 253 252 251 251 251 250 251 252 253 254 254 255
282 281 280 280 281 282 281 281 280 278 276 275 273 272 269 266 265 264 262 261 259 257 256 255 254 253 253 253 252 251 251 252 252 252 252 252 252 251 251 252 253 254 255 256
284 283 281 281 283 285 284 282 281 279 276 274 272 271 270 268 267 266 265 263 261 259 257 256 255 254 254 253 253 252 252 252 253 253 253 253 253 252 252 253 254 254 255 256
289 286 284 285 285 285 285 284 281 279 277 274 273 273 272 271 270 268 268 266 263 260 258 257 255 254 254 254 254 254 254 253 254 254 254 253 253 253 253 254 255 256 256 256
294 291 290 289 288 288 286 285 283 282 278 277 276 275 274 273 272 270 269 266 264 262 259 258 256 255 254 254 254 254 254 254 254 253 253 253 252 253 253 254 255 256 256 256
300 298 297 295 294 293 290 286 283 282 281 281 279 277 276 275 272 271 270 268 265 263 261 260 259 257 255 254 253 253 253 253 253 254 254 253 253 253 253 254 255 256 257 258
302 299 299 298 297 295 292 288 285 283 283 283 281 279 277 274 272 271 270 269 268 266 263 262 262 260 257 254 253 252 252 252 252 253 253 253 253 253 253 254 255 256 257 257
301 300 299 298 297 295 293 290 286 283 283 285 285 283 281 276 273 272 272 271 270 269 267 266 265 263 260 257 254 252 252 252 253 253 253 253 253 254 254 254 256 256 256 257
302 301 300 298 298 297 295 291 287 283 281 282 286 286 283 279 276 274 272 271 269 268 267 266 266 265 262 259 256 253 252 252 253 253 253 254 254 254 254 255 255 256 256 257
303 301 299 299 299 297 295 293 289 285 283 282 283 284 285 280 278 277 275 272 270 268 267 266 266 265 263 261 259 256 255 254 254 253 254 254 255 255 255 256 256 256 257 257
303 300 299 298 297 297 295 293 290 286 283 283 283 283 283 282 279 277 276 275 272 270 269 267 267 265 265 262 261 260 257 256 256 255 255 256 256 257 256 257 257 257 257 257
300 298 297 298 298 297 294 292 290 287 284 284 284 285 282 280 280 277 275 275 274 273 271 269 268 266 265 264 262 262 260 259 258 258 258 258 258 258 257 258 258 258 258 258
299 297 296 296 296 293 293 292 289 288 285 283 283 283 282 279 277 277 275 275 275 274 274 272 270 267 267 266 264 263 262 261 260 260 260 260 260 260 259 259 258 258 258 259
298 297 296 294 294 292 291 292 291 290 288 285 282 281 281 281 278 276 278 278 277 276 275 273 271 269 268 268 267 265 263 262 261 261 261 260 261 261 260 260 259 259 259 259
298 296 294 293 295 293 291 291 290 290 291 289 285 283 281 280 281 279 278 278 279 278 276 275 274 272 271 269 268 268 266 264 263 263 262 261 261 261 260 260 259 258 258 259
297 296 294 294 294 293 294 291 290 290 291 291 287 285 283 282 281 281 280 279 279 279 278 277 276 275 274 273 271 270 270 268 266 266 265 263 262 261 260 260 259 259 258 259
298 297 296 294 293 293 293 292 291 290 290 290 289 287 286 285 283 282 282 281 280 280 280 279 278 277 275 274 273 271 271 271 269 268 268 266 264 262 261 260 260 259 259 259
299 298 297 295 293 294 295 293 291 290 290 290 289 288 286 286 284 284 283 283 282 281 281 281 281 280 278 277 275 273 273 271 270 269 269 268 265 264 263 261 260 260 260 260
299 299 297 295 294 294 294 294 293 291 291 290 289 288 287 286 286 286 285 284 283 282 282 282 282 281 280 279 277 275 274 272 270 269 269 268 267 265 264 263 261 260 260 260
300 300 298 296 294 295 295 293 292 291 289 289 288 287 286 287 287 288 288 287 284 283 283 283 283 282 281 280 279 277 275 272 271 269 268 268 268 266 265 264 263 262 261 261
299 298 297 296 295 294 293 292 291 290 289 289 288 287 286 286 287 288 288 287 286 286 285 284 283 283 283 282 280 278 276 273 271 270 269 268 267 267 266 266 265 264 262 261
297 295 295 296 295 294 293 292 291 290 289 288 288 288 288 287 287 287 287 287 287 286 286 285 284 284 283 282 280 279 277 275 273 271 270 269 268 268 267 267 266 265 264 262
296 293 294 295 295 295 295 294 292 290 290 288 287 288 288 288 288 288 289 289 288 287 287 286 285 284 283 282 280 278 277 276 274 273 272 270 270 269 268 267 267 266 265 263
294 294 295 296 296 296 296 296 295 293 291 290 289 289 289 289 289 289 289 289 288 288 287 287 285 284 284 282 280 278 278 277 275 274 273 272 271 270 268 267 266 265 264 263
Height
5679 5678 5676 5675 5673 5672 5670 5669 5667 5667 5666 5665 5664 5664 5664 5664 5664 5665 5665 5667 5669 5670 5672 5673 5675 5676 5678 5680 5682 5684 5686 5688 5689 5691 5692 5694 5697 5699 5702 5703 5705 5706 5708 5709
5671 5669 5668 5665 5663 5661 5660 5658 5657 5657 5655 5653 5652 5652 5651 5651 5651 5652 5653 5654 5656 5658 5660 5661 5663 5665 5667 5669 5670 5672 5674 5676 5678 5680 5681 5683 5685 5688 5690 5692 5694 5695 5697 5698
5662 5661 5658 5656 5653 5652 5650 5648 5647 5645 5644 5642 5641 5640 5640 5640 5640 5640 5641 5642 5644 5645 5647 5649 5651 5653 5655 5657 5658 5660 5663 5664 5666 5668 5670 5672 5674 5676 5678 5680 5682 5684 5685 5686
5652 5651 5649 5646 5644 5642 5640 5639 5637 5634 5633 5631 5630 5628 5628 5628 5628 5629 5630 5631 5632 5633 5635 5637 5639 5641 5643 5644 5646 5648 5650 5652 5654 5655 5657 5659 5662 5664 5666 5668 5670 5672 5673 5674
5643 5641 5640 5638 5636 5633 5631 5629 5627 5625 5622 5621 5620 5618 5617 5618 5618 5619 5619 5619 5620 5621 5622 5624 5626 5628 5630 5632 5634 5636 5638 5640 5641 5643 5645 5647 5649 5652 5654 5656 5657 5659 5660 5662
5635 5632 5630 5628 5626 5624 5622 5620 5618 5615 5613 5611 5611 5609 5607 5608 5608 5608 5608 5608 5608 5609 5610 5611 5613 5615 5617 5619 5621 5623 5625 5627 5629 5630 5632 5634 5637 5639 5641 5643 5645 5646 5648 5649
5627 5625 5622 5620 5617 5615 5612 5611 5608 5605 5602 5602 5602 5599 5598 5598 5598 5597 5597 5597 5597 5597 5598 5599 5600 5602 5604 5606 5608 5610 5612 5614 5616 5617 5619 5621 5624 5626 5628 5630 5632 5634 5635 5636
5619 5617 5614 5611 5609 5606 5603 5601 5600 5597 5595 5594 5592 5589 5590 5588 5587 5587 5587 5587 5586 5587 5587 5588 5589 5590 5591 5593 5595 5597 5599 5601 5603 5605 5606 5608 5611 5613 5615 5617 5619 5620 5622 5623
5611 5609 5607 5603 5600 5598 5595 5592 5591 5589 5585 5584 5581 5580 5580 5579 5578 5578 5577 5577 5576 5576 5577 5577 5577 5578 5579 5580 5582 5584 5586 5588 5590 5592 5594 5595 5597 5599 5601 5603 5605 5606 5608 5609
5603 5601 5599 5596 5593 5590 5587 5584 5582 5579 5576 5574 5572 5571 5571 5570 5569 5568 5567 5567 5566 5566 5566 5566 5566 5566 5567 5568 5569 5571 5574 5575 5577 5579 5580 5582 5584 5586 5588 5589 5591 5592 5594 5595
5596 5593 5591 5587 5584 5582 5579 5577 5573 5571 5568 5566 5563 5565 5562 5561 5559 5559 5558 5557 5557 5556 5556 5556 5555 5555 5555 5556 5557 5559 5561 5563 5564 5566 5567 5569 5570 5572 5573 5575 5577 5578 5580 5581
5588 5585 5582 5580 5577 5573 5571 5568 5566 5564 5561 5558 5556 5558 5554 5552 5551 5550 5549 5548 5547 5546 5546 5545 5545 5544 5544 5545 5546 5547 5548 5550 5552 5553 5554 5556 5557 5558 5560 5561 5563 5564 5566 5567
5580 5577 5574 5571 5571 5567 5563 5561 5558 5556 5553 5550 5548 5550 5546 5543 5542 5540 5539 5538 5537 5536 5536 5535 5534 5534 5534 5534 5535 5535 5536 5537 5539 5540 5541 5543 5544 5545 5546 5548 5549 5550 5551 5553
5572 5569 5567 5565 5561 5558 5555 5553 5550 5548 5545 5542 5541 5540 5537 5535 5533 5531 5530 5529 5528 5527 5526 5525 5524 5524 5524 5524 5524 5524 5524 5525 5526 5527 5528 5529 5530 5532 5533 5534 5535 5536 5537 5539
5564 5561 5559 5556 5553 5550 5547 5545 5542 5539 5537 5534 5533 5530 5528 5526 5525 5523 5521 5520 5519 5517 5516 5515 5514 5514 5513 5513 5512 5512 5512 5513 5514 5515 5516 5516 5517 5518 5519 5520 5521 5522 5523 5524
5556 5553 5550 5548 5545 5542 5539 5537 5534 5531 5529 5526 5524 5522 5520 5518 5516 5514 5512 5511 5509 5508 5506 5505 5504 5504 5503 5502 5502 5501 5501 5501 5502 5502 5503 5503 5504 5505 5506 5506 5506 5507 5509 5510
5548 5545 5542 5540 5537 5533 5531 5530 5527 5524 5521 5518 5515 5515 5511 5509 5507 5505 5503 5502 5500 5498 5496 5495 5494 5493 5492 5491 5490 5490 5489 5489 5489 5489 5490 5490 5491 5492 5492 5492 5493 5494 5495 5496
5540 5537 5533 5530 5529 5525 5526 5521 5518 5515 5513 5510 5507 5505 5502 5500 5498 5496 5494 5492 5490 5488 5486 5485 5483 5482 5481 5480 5479 5478 5477 5476 5476 5477 5477 5477 5477 5478 5478 5479 5479 5480 5481 5482
5532 5528 5525 5522 5518 5516 5516 5512 5509 5506 5504 5502 5499 5496 5493 5491 5489 5487 5484 5482 5480 5479 5477 5475 5473 5471 5470 5468 5467 5466 5465 5464 5464 5464 5464 5463 5463 5464 5464 5464 5465 5466 5467 5468
5524 5520 5517 5513 5509 5507 5507 5503 5499 5498 5495 5493 5490 5487 5485 5482 5480 5479 5475 5473 5470 5468 5466 5464 5462 5460 5459 5457 5455 5454 5453 5452 5452 5451 5451 5450 5450 5450 5450 5450 5451 5452 5453 5454
5515 5511 5508 5504 5500 5498 5497 5493 5491 5489 5488 5484 5480 5478 5475 5473 5471 5469 5465 5463 5460 5458 5456 5453 5451 5449 5447 5445 5444 5442 5441 5440 5439 5439 5438 5438 5437 5437 5437 5437 5438 5438 5439 5440
5506 5503 5499 5496 5493 5492 5487 5484 5482 5480 5476 5473 5471 5468 5466 5463 5461 5458 5455 5453 5450 5448 5445 5443 5440 5438 5436 5434 5432 5430 5429 5428 5427 5426 5426 5425 5425 5424 5424 5424 5424 5425 5425 5426
5498 5495 5490 5488 5487 5482 5478 5475 5472 5469 5467 5464 5462 5459 5456 5454 5451 5449 5446 5442 5440 5437 5434 5432 5429 5427 5424 5422 5420 5418 5417 5416 5415 5414 5413 5413 5412 5412 5412 5412 5412 5412 5412 5413
5489 5485 5481 5478 5475 5472 5469 5465 5462 5460 5457 5454 5452 5449 5446 5444 5441 5438 5435 5432 5429 5426 5423 5421 5418 5416 5413 5411 5408 5407 5405 5404 5403 5402 5401 5401 5400 5400 5399 5399 5399 5399 5399 5399
5479 5475 5472 5469 5466 5462 5459 5456 5453 5450 5447 5444 5442 5439 5436 5433 5430 5427 5424 5421 5418 5415 5412 5409 5407 5404 5402 5400 5397 5395 5394 5392 5391 5390 5389 5388 5388 5387 5387 5387 5386 5386 5386 5386
5470 5466 5463 5460 5457 5453 5450 5447 5443 5440 5437 5434 5432 5429 5426 5423 5420 5416 5413 5409 5406 5404 5401 5398 5395 5393 5391 5388 5386 5384 5382 5381 5380 5378 5377 5376 5375 5375 5374 5374 5374 5373 5374 5374